Olive Branch, MS

3:17 PM CDT on April 21, 2018 (GMT -0500)
Olive Branch

Weather History for KOLV - December, 2012

Change the Weather History Date:

Sunday, December 23, 2012

  Actual Average (KMEM) Record (KMEM)
Temperature  
Mean Temperature 46 °F -  
Max Temperature 53 °F 49 °F 73 °F (1931)
Min Temperature 39 °F 32 °F -8 °F (1963)
Degree Days  
Heating Degree Days 19    
Moisture  
Dew Point 37 °F    
Average Humidity 75    
Maximum Humidity 100    
Minimum Humidity 57    
Precipitation  
Precipitation 0.01 in - - ()
Sea Level Pressure  
Sea Level Pressure 30.00 in    
Wind  
Wind Speed 9 mph (South)    
Max Wind Speed 16 mph    
Max Gust Speed -    
Visibility 8 miles    
Events Rain    
Averages and records for this station are not official NWS values.
T = Trace of Precipitation, MM = Missing Value Source: NWS Daily Summary

Daily Weather History Graph

Daily Weather History Graph

Search for Another Location

Airport or City:

Astronomy

Dec. 23, 2012 Rise Set
Actual Time 7:04 AM CST 4:52 PM CST
Civil Twilight 6:36 AM CST 5:20 PM CST
Nautical Twilight 6:04 AM CST 5:52 PM CST
Astronomical Twilight 5:33 AM CST 6:23 PM CST
Moon 1:39 PM CST (12/23) 2:51 AM CST (12/23)
Length of Visible Light 10h 44m
Length of Day
9h 48m
Waxing Gibbous, 82% of the Moon is Illuminated
Dec 23
Waxing Gibbous
Dec 28
Full
Jan 4
Last Quarter
Jan 11
New
Jan 18
First Quarter

Hourly Weather History & Observations

Time (CST) Temp. Windchill Dew Point Humidity Pressure Visibility Wind Dir Wind Speed Gust Speed Precip Events Conditions
12:15 AM 42.8 °F 37.5 °F 30.2 °F 61% 30.12 in 10.0 mi South 9.2 mph - 0.00 in   Clear
12:35 AM 41.0 °F 35.8 °F 30.2 °F 65% 30.11 in 10.0 mi South 8.1 mph - N/A   Clear
12:55 AM 39.2 °F 32.5 °F 30.2 °F 70% 30.11 in 10.0 mi South 10.4 mph - 0.00 in   Clear
1:15 AM 41.0 °F 34.7 °F 30.2 °F 65% 30.10 in 10.0 mi South 10.4 mph - 0.00 in   Clear
1:35 AM 39.2 °F 33.0 °F 30.2 °F 70% 30.10 in 8.0 mi South 9.2 mph - 0.00 in   Clear
1:55 AM 39.2 °F 33.6 °F 30.2 °F 70% 30.10 in 8.0 mi South 8.1 mph - 0.00 in   Clear
2:15 AM 39.2 °F 33.0 °F 30.2 °F 70% 30.11 in 10.0 mi South 9.2 mph - 0.00 in   Clear
2:35 AM 39.2 °F 33.0 °F 30.2 °F 70% 30.11 in 10.0 mi SSW 9.2 mph - 0.00 in   Clear
2:55 AM 42.8 °F 37.0 °F 32.0 °F 66% 30.11 in 10.0 mi SSW 10.4 mph - 0.00 in   Clear
3:15 AM 42.8 °F 37.5 °F 32.0 °F 66% 30.10 in 9.0 mi SSW 9.2 mph - 0.00 in   Clear
3:35 AM 44.6 °F 38.8 °F 32.0 °F 61% 30.09 in 9.0 mi SSW 11.5 mph - 0.00 in   Clear
3:55 AM 44.6 °F 38.8 °F 32.0 °F 61% 30.09 in 10.0 mi SSW 11.5 mph - 0.00 in   Scattered Clouds
4:15 AM 46.4 °F 41.1 °F 32.0 °F 57% 30.08 in 10.0 mi SSW 11.5 mph - 0.00 in   Mostly Cloudy
4:35 AM 46.4 °F 39.8 °F 33.8 °F 62% 30.08 in 10.0 mi SSW 16.1 mph - 0.00 in   Mostly Cloudy
4:55 AM 46.4 °F 40.1 °F 33.8 °F 62% 30.08 in 10.0 mi SSW 15.0 mph - 0.00 in   Overcast
5:15 AM 46.4 °F 41.1 °F 33.8 °F 62% 30.08 in 10.0 mi SSW 11.5 mph - 0.00 in   Overcast
5:35 AM 46.4 °F 41.9 °F 33.8 °F 62% 30.07 in 10.0 mi SSW 9.2 mph - 0.00 in   Overcast
5:55 AM 46.4 °F 41.9 °F 33.8 °F 62% 30.08 in 10.0 mi South 9.2 mph - 0.00 in   Overcast
6:50 AM 48.2 °F - 33.8 °F 58% 30.07 in 10.0 mi SSW 10.4 mph - N/A   Overcast
7:50 AM 46.4 °F 41.5 °F 35.6 °F 66% 30.08 in 10.0 mi SSW 10.4 mph - N/A   Overcast
9:45 AM 44.6 °F 39.2 °F 44.6 °F 100% 30.08 in 2.0 mi South 10.4 mph - N/A Rain Overcast
9:55 AM 44.6 °F 39.2 °F 42.8 °F 93% 30.08 in 4.0 mi SSW 10.4 mph - N/A Rain Light Rain
10:45 AM 44.6 °F 40.7 °F 44.6 °F 100% 30.06 in 2.0 mi South 6.9 mph - N/A Rain Light Rain
11:18 AM 46.4 °F 41.9 °F 46.4 °F 100% 30.03 in 8.0 mi South 9.2 mph - N/A   Overcast
12:50 PM 46.4 °F 42.9 °F 46.4 °F 100% 29.98 in 4.0 mi SSE 6.9 mph - N/A Rain Light Rain
2:50 PM 50.0 °F - 50.0 °F 100% 29.93 in 1.5 mi South 4.6 mph - N/A   Overcast
3:50 PM 51.8 °F - 51.8 °F 100% 29.93 in 4.0 mi South 5.8 mph - N/A   Overcast
4:50 PM 51.8 °F - 51.8 °F 100% 29.91 in 7.0 mi South 8.1 mph - N/A   Overcast
5:50 PM 51.8 °F - 51.8 °F 100% 29.90 in 5.0 mi South 5.8 mph - N/A   Overcast
6:50 PM 51.8 °F - - N/A% 29.91 in 10.0 mi South 5.8 mph - N/A   Overcast
7:50 PM 53.6 °F - - N/A% 29.91 in 7.0 mi South 9.2 mph - N/A   Overcast
8:15 PM 53.6 °F - - N/A% 29.90 in 7.0 mi South 10.4 mph - 0.01 in   Overcast
8:35 PM 53.6 °F - - N/A% 29.90 in 10.0 mi South 11.5 mph - 0.01 in   Overcast
8:55 PM 53.6 °F - - N/A% 29.89 in 9.0 mi South 8.1 mph - 0.01 in   Overcast
9:15 PM 53.6 °F - - N/A% 29.89 in 8.0 mi South 10.4 mph - 0.00 in   Overcast
9:35 PM 53.6 °F - - N/A% 29.88 in 8.0 mi South 10.4 mph - 0.00 in   Overcast
9:55 PM 53.6 °F - - N/A% 29.88 in 8.0 mi South 10.4 mph - 0.00 in   Overcast
10:15 PM 53.6 °F - - N/A% 29.87 in 8.0 mi South 8.1 mph - 0.00 in   Overcast
10:35 PM 53.6 °F - - N/A% 29.87 in 10.0 mi South 8.1 mph - 0.00 in   Overcast
10:55 PM 53.6 °F - - N/A% 29.86 in 10.0 mi South 6.9 mph - 0.00 in   Overcast
11:15 PM 53.6 °F - - N/A% 29.85 in 9.0 mi South 4.6 mph - 0.00 in   Overcast
11:35 PM 53.6 °F - - N/A% 29.84 in 10.0 mi South 3.5 mph - 0.00 in   Overcast
11:55 PM 53.6 °F - - N/A% 29.84 in 10.0 mi South 4.6 mph - N/A   Overcast